PAZ (43215 NORAD) Tracking and Keplerian Element Data

This shows tracking and keplerian element data for the satellite.

Feedback or suggestion? Click here.




ElementValue
Catalog43215
NamePAZ
Epoch Orbit19928
Epoch Day270.21435508
Epoch Year2021
RAAN276.3394
Inclination97.4456
Eccentricity0.0001706
Argument of Perigee82.1996
Mean Anonmoly341.1048
Mean Motion15.19155526
Decay Rate4.73E-06
L11 43215U 18020A 21270.21435508 .00000473 00000-0 25732-4 0 9993
L22 43215 97.4456 276.3394 0001706 82.1996 341.1048 15.19155526199285

Live tracking and technical data element details for PAZ (NORAD 43215). PAZ can be tracked NOW for your location showing map with azimuth and elevation plus other details from your city location.

Track the satellite on the map from your city or location and see movement details for azimuth, elevation, latitude, longitude, range, height, and movement on the map or in text.







IsCatalogInMostPopularTable: catalog: 43215, numindb: 533
Update: records affected: 1



GetName: 43215 PAZ

Hit Count: updated at: Tue, 28 Sep 2021 15:45:57 GMT